TB3NHM-11 Weather Reports


Display with metric or nautical units.
time (UTC)temp
F
wind
direction
speed
MPH
gust
MPH
rain 1hr
in
rain 24hr
in
rain mn
in
humidity
%
barometer
mb
20260508065914 66 0 0.0 0.0 0.00 0.00 0.00 49 1008.0
20260508055945 63 0 0.0 0.0 0.00 0.00 0.00 53 1008.2
20260508050024 59 0 0.0 0.0 0.00 0.00 0.00 57 1008.2
20260508040101 57 0 0.0 0.0 0.00 0.00 0.00 61 1007.9
20260508030138 57 0 0.0 0.0 0.00 0.00 0.00 61 1007.7
20260508020222 58 0 0.0 0.0 0.00 0.00 0.00 55 1007.6
20260508010306 59 0 0.0 0.0 0.00 0.00 0.00 57 1007.5
20260508000350 60 0 0.0 0.0 0.00 0.00 0.00 54 1007.5
20260507220504 63 0 0.0 0.0 0.00 0.00 0.00 46 1007.9
20260507210551 65 0 0.0 0.0 0.00 0.00 0.00 45 1007.8
20260507200632 65 0 0.0 0.0 0.00 0.00 0.00 44 1007.8
20260507190718 66 0 0.0 0.0 0.00 0.00 0.00 41 1007.5
20260507180806 67 0 0.0 0.0 0.00 0.00 0.00 43 1007.3
20260507170904 69 0 0.0 0.0 0.00 0.00 0.00 41 1006.9
20260507161008 73 0 0.0 0.0 0.00 0.00 0.00 35 1006.5
20260507151104 77 0 0.0 0.0 0.00 0.00 0.00 29 1006.2
20260507141145 78 0 0.0 0.0 0.00 0.00 0.00 28 1006.3
20260507131235 80 0 0.0 0.0 0.00 0.00 0.00 25 1006.3
20260507121342 81 0 0.0 0.0 0.00 0.00 0.00 27 1006.7
20260507111416 78 0 0.0 0.0 0.00 0.00 0.00 29 1006.9
20260507101448 76 0 0.0 0.0 0.00 0.00 0.00 29 1007.2
20260507091525 72 0 0.0 0.0 0.00 0.00 0.00 36 1007.7
20260507081616 70 0 0.0 0.0 0.00 0.00 0.00 41 1008.2